EHI
16 16 15 10 5 1 0 0 0 0 0 0 0 0 0 0 0 0 1 1 1 0 1 2 2 2 1 0 0 1 2 3 2 1 0 0 0 1 2 2 3 4 6 6 4 2 1 1 0
12 10 7 6 3 0 0 0 0 0 0 0 0 0 0 0 0 0 0 0 0 0 0 1 1 1 0 0 0 0 1 2 1 0 0 0 0 1 1 2 2 4 5 4 4 3 2 1 1
11 6 2 2 1 0 0 0 0 0 0 0 0 0 0 0 0 0 0 0 0 0 0 0 0 1 0 0 0 0 0 0 0 1 1 1 1 1 2 2 3 3 3 3 4 3 2 1 1
9 6 2 1 0 0 0 0 0 0 0 0 0 0 0 0 0 0 0 0 0 0 0 0 0 0 0 0 0 0 0 0 0 1 2 2 1 1 1 2 3 4 4 3 3 3 3 2 2
8 5 1 0 0 0 0 0 0 0 0 0 0 0 0 0 0 0 0 0 0 0 0 0 0 0 0 0 0 0 0 0 0 1 1 1 0 0 0 1 1 2 3 3 2 3 3 3 2
7 3 1 0 0 0 0 0 0 0 0 0 0 0 0 0 0 0 0 0 0 0 0 0 1 1 0 0 0 0 0 0 0 0 0 0 0 0 0 0 0 0 1 1 1 1 1 1 1
4 2 0 0 0 0 0 0 0 0 0 0 0 0 0 0 0 1 0 0 0 0 0 0 0 1 1 0 0 0 0 0 0 0 0 0 0 0 0 0 0 0 0 0 0 0 0 0 0
2 1 0 0 0 0 0 0 0 0 0 0 0 0 0 0 0 0 0 0 0 0 0 0 0 0 0 0 0 0 0 0 0 0 0 0 0 0 0 0 0 0 1 1 1 0 0 0 0
1 0 0 0 0 0 0 0 0 0 0 0 0 0 0 0 0 0 0 0 0 0 0 0 0 0 0 0 0 0 0 0 0 0 0 0 0 0 0 0 0 1 2 2 2 1 1 0 0
0 0 0 1 0 0 0 0 0 0 0 0 0 0 0 0 0 0 0 0 0 0 0 0 0 0 0 0 0 0 0 0 0 0 0 0 0 0 0 0 0 1 2 3 3 2 1 0 0
0 0 0 0 0 0 0 0 0 0 0 0 0 0 0 0 0 0 0 0 0 0 0 0 0 0 0 0 0 0 0 0 0 0 0 0 0 0 0 0 0 1 1 2 2 2 1 0 0
0 0 0 0 0 0 0 0 0 0 0 0 0 0 0 0 0 0 0 0 0 0 0 0 0 0 0 0 0 0 0 0 0 0 0 0 0 0 0 0 0 0 0 1 1 1 0 0 0
0 0 0 0 0 0 0 0 0 0 1 1 1 0 0 0 0 0 0 0 0 0 0 0 0 0 0 0 0 0 0 0 0 0 0 0 0 0 0 0 0 0 0 0 0 0 0 0 0
0 0 0 0 0 0 0 0 0 0 1 1 1 0 0 0 0 0 0 0 0 0 0 0 0 0 0 0 0 0 0 0 0 0 0 0 0 0 0 0 0 0 0 0 0 0 0 0 0
0 0 0 0 0 0 0 0 0 0 0 0 0 0 0 0 0 0 0 0 0 0 0 0 0 0 0 0 0 0 0 0 0 0 0 0 0 0 0 0 0 0 0 0 0 0 0 0 0
0 0 0 0 0 0 0 0 0 0 0 0 0 0 0 0 0 0 0 0 0 0 0 0 0 0 0 0 0 0 0 0 0 0 0 0 0 0 0 0 0 0 0 0 0 0 0 0 0
0 0 0 0 0 0 0 0 0 0 0 0 0 0 0 0 0 0 0 0 0 0 0 0 0 0 0 0 0 0 0 0 0 0 0 0 0 0 0 0 0 0 0 0 0 0 0 0 0
0 0 0 0 0 0 0 0 0 0 0 0 0 0 0 0 0 1 1 0 0 0 0 0 0 0 0 0 0 0 0 0 0 0 0 0 0 0 0 0 0 0 0 0 0 0 0 0 0
0 0 0 0 0 0 0 0 0 0 0 0 0 0 0 0 0 1 2 1 0 0 0 0 0 0 0 0 0 0 0 0 0 0 0 0 0 0 0 0 0 0 0 0 0 0 0 0 0
0 0 0 0 0 0 0 0 0 0 0 0 0 0 0 0 1 2 2 1 0 0 0 0 0 0 0 0 0 0 0 0 0 0 0 0 0 0 0 0 0 0 0 0 0 0 0 0 0
0 0 0 0 0 0 0 0 0 0 0 0 0 0 0 1 2 2 1 0 0 0 0 0 0 0 0 0 0 0 0 0 0 0 0 0 0 0 0 0 0 0 0 0 0 0 0 0 0
0 0 0 0 0 0 0 0 0 0 0 0 0 0 0 1 2 1 0 0 0 0 0 0 0 0 0 0 0 0 0 0 0 0 0 0 0 0 0 0 0 0 0 0 0 0 0 0 0
0 0 0 0 0 0 0 0 0 0 0 0 0 0 0 1 2 1 0 0 0 0 0 0 0 0 0 0 0 0 0 0 0 0 0 0 0 0 0 0 0 0 0 0 0 0 0 0 0
0 0 0 0 0 0 0 0 0 0 0 0 0 0 0 1 2 1 0 0 0 0 0 0 0 0 0 0 0 0 0 0 0 0 0 0 0 0 0 0 0 0 0 0 0 0 0 0 0
0 0 0 0 0 0 0 0 0 0 0 0 0 0 0 1 2 2 1 0 1 1 0 0 0 0 0 0 0 0 0 0 0 0 0 0 0 0 0 0 0 0 0 0 0 0 0 0 0
0 0 0 0 0 0 0 0 0 0 0 0 0 0 1 2 3 2 1 1 2 2 1 1 0 0 0 0 0 0 0 0 0 0 0 0 0 0 0 0 0 0 0 0 0 0 0 0 0
0 0 0 0 0 0 0 0 0 0 0 0 0 1 2 3 3 2 1 1 3 3 2 1 0 0 0 0 0 0 0 0 0 0 0 0 0 0 0 0 0 0 0 0 0 0 0 0 0
0 0 0 0 0 0 0 0 0 0 0 0 0 1 2 2 2 1 0 0 2 3 3 2 0 0 0 0 0 0 0 0 0 0 0 0 0 0 0 0 0 0 0 0 0 0 0 0 0
0 0 0 0 0 0 0 0 0 0 0 0 0 0 1 2 2 2 1 0 1 2 3 2 1 0 0 0 0 0 0 0 0 0 0 0 0 0 0 0 0 0 0 0 0 0 0 0 0
0 0 0 0 0 0 0 0 0 0 0 0 0 0 0 1 3 4 2 1 0 1 3 2 1 0 0 0 0 0 0 0 0 0 0 0 0 0 0 0 0 0 0 0 0 0 0 0 0
Wind_Speed
10 9 5 2 2 2 3 5 7 7 7 9 10 11 13 13 9 10 4 8 11 12 12 11 12 12 12 12 11 11 11 11 10 10 10 9 9 9 8 8 8 7 7 7 7 7 7 7 7
10 6 3 3 2 0 4 6 10 9 8 7 9 12 13 12 11 9 5 8 11 12 11 11 12 12 12 11 11 11 10 10 10 9 9 9 9 8 8 8 8 7 7 7 7 7 7 7 7
11 7 4 2 1 3 5 7 8 8 7 7 8 11 9 8 9 7 6 10 12 13 11 11 12 11 11 11 11 10 10 9 9 9 8 8 8 8 8 7 7 7 7 7 7 6 6 7 7
5 3 4 1 4 8 8 7 6 6 6 8 9 10 9 8 8 9 9 12 13 12 11 10 11 11 10 10 10 9 9 9 9 9 8 8 7 7 7 7 7 7 7 7 6 6 5 6 6
4 4 3 1 5 8 8 7 5 6 6 9 12 12 11 11 12 11 9 11 11 11 11 10 11 10 9 9 9 9 9 8 8 8 7 7 7 7 7 6 6 6 6 6 6 5 5 5 5
3 3 2 2 6 6 6 5 6 8 9 10 12 12 9 9 10 9 9 8 9 10 11 10 11 10 9 9 9 8 8 7 7 6 6 5 5 6 6 6 6 6 6 6 5 5 5 5 4
4 4 2 4 5 4 4 4 6 6 7 7 9 11 9 9 7 8 8 8 7 8 9 8 9 9 10 10 9 8 7 5 5 4 3 2 3 4 5 6 6 6 5 5 5 5 5 4 3
3 4 2 3 5 5 4 4 6 7 6 6 7 9 10 9 8 8 7 7 6 6 6 7 7 8 8 8 9 8 6 4 3 2 1 1 2 3 5 6 5 5 5 5 4 4 4 3 2
4 3 2 3 4 5 4 5 5 5 6 7 9 12 14 13 10 8 6 6 5 5 5 5 5 5 6 6 8 7 6 4 3 3 3 3 2 3 3 6 6 4 4 3 3 2 2 2 1
2 1 4 5 5 6 5 5 4 5 7 11 14 14 14 12 10 9 7 7 6 5 5 5 5 5 4 5 4 2 3 2 1 1 1 1 2 3 5 6 5 4 2 2 2 2 2 1 1
1 3 4 6 6 6 5 4 3 5 6 10 14 14 12 10 8 7 7 7 6 5 5 5 5 5 5 3 3 1 1 1 2 2 3 2 2 2 2 2 3 2 3 1 2 2 1 1 2
2 4 4 5 5 4 4 4 5 6 7 10 13 13 11 9 7 6 7 7 6 5 4 4 5 5 6 4 2 2 2 2 2 2 3 3 2 2 2 1 1 1 1 1 1 1 2 3 3
2 3 4 4 4 3 4 5 5 7 9 12 12 11 9 9 7 6 7 6 7 6 5 5 5 6 6 3 1 4 3 2 2 2 2 3 2 2 2 2 2 2 2 2 2 3 5 5 5
3 4 3 3 4 3 4 5 6 7 9 11 10 8 8 8 8 7 6 6 7 6 6 5 5 5 5 3 2 3 2 2 3 2 2 3 2 2 3 3 2 2 2 2 2 4 4 4 5
3 3 3 3 3 3 3 5 7 9 10 10 10 8 7 7 6 7 6 6 6 6 7 5 5 6 6 5 4 3 2 3 3 2 3 4 4 4 3 3 2 2 2 3 3 4 4 4 5
5 4 3 3 3 3 3 4 6 9 9 8 7 7 7 6 6 5 5 6 6 6 8 5 5 6 5 4 3 3 4 4 3 3 4 4 4 4 3 3 2 2 3 3 3 4 4 4 4
5 5 5 4 3 3 3 5 5 7 9 8 7 6 7 7 6 6 5 5 5 6 7 6 4 5 5 3 3 4 4 3 3 4 4 5 5 5 4 3 3 4 3 3 4 4 3 3 3
4 4 4 4 3 3 3 5 7 8 8 7 7 7 7 8 7 7 6 5 4 5 7 7 5 4 4 2 3 3 4 3 4 4 4 5 4 4 4 2 4 4 4 3 3 3 3 3 3
3 2 3 3 3 2 3 5 8 8 7 6 6 6 8 8 8 7 6 5 4 4 6 7 5 4 4 2 2 2 2 3 3 4 5 4 4 4 4 3 4 4 4 3 4 3 3 2 2
3 2 1 3 3 3 5 6 7 9 9 8 9 9 8 9 9 8 7 5 4 4 5 6 5 5 5 2 2 2 2 3 3 3 4 4 5 5 4 4 3 4 3 4 4 3 2 1 1
3 2 1 2 2 4 4 6 8 9 10 9 9 8 9 10 10 10 8 6 4 4 4 5 5 6 5 4 3 3 3 2 3 3 3 4 4 5 5 4 3 3 3 3 2 2 2 1 1
2 2 2 4 4 3 6 4 7 9 9 10 9 9 8 9 10 9 8 7 6 5 5 5 5 6 5 4 3 2 2 2 3 2 2 3 4 4 4 4 4 3 3 3 2 3 1 2 1
1 1 4 5 4 4 4 4 4 7 9 11 11 10 9 9 10 10 9 7 7 5 5 4 5 5 5 4 4 2 2 3 3 3 3 3 3 3 3 3 3 3 3 3 4 3 3 2 2
2 3 5 5 3 5 6 5 3 6 9 10 11 11 11 10 10 10 9 7 6 6 5 4 5 5 4 4 4 3 3 3 3 3 2 2 2 2 3 3 3 4 3 4 3 3 3 3 3
5 3 2 3 4 4 4 4 3 5 7 8 10 11 11 10 10 10 9 8 7 7 6 5 6 5 4 4 4 4 4 4 3 2 2 2 2 2 2 3 3 3 3 4 3 3 3 3 3
5 4 2 2 2 1 2 2 2 6 6 7 7 9 10 10 10 9 10 9 8 8 7 7 7 6 5 4 4 4 5 3 2 2 2 2 2 2 3 3 4 4 3 4 3 3 3 3 4
4 4 4 4 5 2 2 3 4 6 7 7 7 9 10 10 10 9 9 9 9 9 8 7 7 6 6 4 4 4 5 3 3 2 3 2 2 3 3 3 3 3 3 3 3 3 3 3 3
5 4 2 2 2 2 2 3 4 7 7 6 7 8 9 10 10 10 9 9 9 9 8 7 7 7 6 5 4 3 4 4 3 3 3 3 3 3 2 3 3 3 3 3 4 3 2 4 3
5 5 3 3 2 1 1 1 3 5 6 6 7 8 9 9 10 9 8 8 8 8 8 8 7 7 6 6 5 4 4 4 4 3 3 3 3 3 2 2 3 3 3 3 2 2 2 2 2
5 6 4 3 2 1 1 0 2 5 4 5 6 7 9 9 9 9 9 8 8 9 9 8 7 7 6 5 5 5 5 4 4 4 4 3 3 2 2 2 2 3 3 3 3 2 2 2 3
Wind_Direction
287 263 245 244 258 239 66 67 71 60 59 54 55 67 69 53 60 96 130 104 104 106 105 93 85 84 82 80 78 75 72 70 70 69 67 66 65 63 62 61 59 59 61 59 56 56 56 54 54
286 280 259 239 273 350 71 71 68 66 75 76 66 72 75 72 80 98 110 104 105 101 96 92 88 86 82 78 74 72 70 68 68 68 65 64 61 59 59 59 57 56 61 61 59 58 59 58 56
270 265 259 247 326 56 85 78 80 76 68 70 76 62 60 75 87 102 126 115 103 100 99 97 92 88 85 80 76 71 68 67 67 66 64 64 62 59 58 57 56 59 63 62 60 60 62 63 57
270 252 245 248 62 68 92 98 95 89 77 74 85 75 68 63 93 119 126 113 107 107 106 106 99 92 87 82 75 71 67 63 63 64 65 65 63 60 59 57 57 59 62 59 57 59 64 65 60
243 255 257 130 77 77 78 85 79 75 75 78 84 89 83 84 102 113 111 112 113 113 115 117 112 105 95 86 77 72 70 68 67 67 65 62 61 60 61 59 57 57 58 58 57 59 66 67 64
274 257 262 127 97 84 78 78 84 82 89 95 103 102 95 104 106 109 109 108 111 116 118 123 129 123 111 97 86 79 75 72 70 69 69 68 69 69 66 63 60 59 58 60 62 67 72 74 66
284 282 257 117 111 96 85 80 82 90 91 91 106 106 115 111 109 113 112 106 106 114 123 135 143 137 124 111 102 94 89 88 86 87 84 80 84 87 79 72 68 64 64 67 72 76 84 83 73
293 292 324 85 109 98 82 84 83 94 90 93 108 118 127 130 126 116 112 115 121 126 130 133 138 140 139 132 127 126 124 122 126 154 178 196 195 130 102 90 83 78 78 80 85 91 97 95 84
272 283 9 64 98 108 105 91 84 98 101 80 74 100 123 135 131 129 128 124 123 120 128 124 123 125 131 136 134 150 154 156 179 203 228 228 193 146 120 96 104 96 98 106 117 128 141 133 129
266 0 44 52 88 115 113 104 116 118 108 98 96 106 126 140 142 142 141 135 132 130 129 127 127 124 110 100 118 145 121 128 156 96 74 95 74 79 102 124 130 131 135 157 177 203 213 206 177
354 67 68 63 78 109 114 108 103 106 111 119 126 131 138 142 140 138 131 120 112 109 108 118 118 109 107 97 100 89 89 95 52 34 61 40 57 95 112 148 159 169 181 215 179 212 204 145 96
69 66 71 87 89 104 107 100 87 85 105 121 128 135 140 138 131 130 119 112 109 102 100 97 106 106 93 80 97 100 68 67 60 15 61 57 37 47 56 64 83 99 82 38 51 57 51 61 71
129 110 95 101 106 102 108 109 98 96 113 120 127 134 137 134 130 119 112 117 113 112 97 74 68 82 92 88 39 89 75 56 76 17 58 73 55 53 61 71 49 50 60 54 41 51 53 41 43
89 113 128 133 117 112 124 125 117 120 125 126 129 133 136 135 134 129 136 134 124 119 106 94 85 81 91 92 71 73 85 74 60 25 52 64 60 54 60 69 62 62 57 53 59 71 72 59 50
139 151 137 149 153 153 148 125 132 139 140 138 140 142 135 136 138 139 140 129 125 125 111 94 89 75 63 54 47 70 60 66 59 23 34 58 55 51 49 52 53 67 61 56 52 62 66 73 66
197 191 177 178 179 175 177 139 139 149 147 148 145 143 140 144 148 141 136 127 122 112 104 98 89 87 74 60 34 54 55 49 53 38 21 35 56 64 50 43 44 73 74 67 62 62 64 64 64
210 209 185 168 190 187 188 147 150 161 158 159 153 154 154 157 159 147 139 124 116 114 116 116 96 95 90 94 75 54 64 52 48 46 27 22 35 55 60 36 28 57 58 56 68 58 66 78 78
221 207 179 165 187 195 179 157 165 175 178 166 157 167 167 166 168 150 131 118 118 123 123 113 107 105 105 82 77 65 49 54 51 48 40 23 28 42 54 50 44 52 59 59 70 70 62 69 73
305 243 179 148 168 189 183 171 171 179 184 172 168 181 175 169 162 142 137 133 133 134 126 126 135 119 99 76 75 80 74 67 57 56 44 27 27 38 51 49 52 56 61 67 77 74 75 70 91
274 256 155 136 194 200 195 193 186 187 191 189 187 190 181 166 156 148 150 142 150 142 124 130 125 114 101 84 89 91 85 87 84 62 48 35 32 28 44 55 67 67 63 62 69 73 65 56 61
235 234 187 208 219 233 213 216 199 198 193 192 190 184 173 168 162 158 156 154 162 147 136 130 126 118 107 102 73 72 65 61 81 78 57 41 45 34 25 40 61 81 87 78 76 86 76 58 24
231 178 192 218 228 225 209 227 201 195 190 190 186 183 179 172 162 157 158 162 163 153 142 131 125 118 114 112 98 110 116 100 95 97 98 77 60 49 27 30 44 63 75 79 69 83 66 73 49
266 199 223 230 247 264 240 248 206 194 191 189 185 181 176 170 161 160 162 162 156 145 135 134 123 111 112 117 112 95 86 92 91 89 95 93 76 66 47 38 43 61 71 68 62 59 43 53 64
203 245 248 239 247 251 229 231 207 194 193 187 182 179 175 172 163 159 158 153 143 135 135 130 121 114 118 126 127 121 106 98 100 99 97 102 99 69 62 55 51 53 63 59 59 71 56 52 51
209 228 233 206 212 227 196 210 200 170 173 171 172 174 173 167 163 161 158 155 148 146 148 141 135 138 149 151 145 141 133 134 130 128 120 109 106 93 73 66 63 58 60 60 50 60 76 69 60
234 231 260 281 244 187 184 210 134 132 147 149 159 164 165 164 164 163 162 159 157 159 159 156 153 154 162 175 164 155 146 145 136 138 130 115 106 111 103 80 75 66 65 65 50 47 47 66 69
247 233 238 275 286 274 182 147 125 135 141 145 157 159 165 167 164 165 162 161 162 162 164 161 160 162 171 178 159 148 143 144 142 148 124 114 110 107 105 105 99 84 70 67 63 58 51 49 55
259 277 260 256 280 266 206 188 161 158 155 162 162 162 164 164 167 166 162 163 164 165 167 166 167 166 167 173 163 151 143 143 135 129 120 116 110 104 118 132 126 115 96 75 64 59 63 75 62
218 240 254 266 251 276 256 63 129 155 153 172 169 164 164 163 163 161 159 164 162 161 166 170 169 167 169 175 162 153 149 143 134 132 128 129 126 134 141 118 112 113 109 99 87 82 74 89 89
245 250 241 252 265 219 249 329 90 136 155 170 165 164 160 159 160 159 157 158 162 166 172 174 173 172 169 170 163 158 150 150 152 150 151 145 135 135 128 107 96 96 101 103 97 78 67 79 82